FW5493 Weather Reports


Display with metric or nautical units.
time (UTC)temp
F
wind
direction
speed
MPH
gust
MPH
rain 1hr
in
rain 24hr
in
rain mn
in
humidity
%
barometer
mb
20260906231535 64 337 6.0 11.0 0.00 0.00 0.00 69 1017.7
20260906230037 65 325 3.0 9.0 0.00 0.00 0.00 69 1017.8
20260906224532 65 340 4.0 10.0 0.00 0.00 0.00 67 1017.7
20260906223039 66 345 7.0 12.0 0.00 0.00 0.00 66 1017.7
20260906221539 66 350 6.0 14.0 0.00 0.00 0.00 66 1017.7
20260906220038 65 308 8.0 13.0 0.00 0.00 0.00 67 1018.0
20260906214539 64 291 8.0 11.0 0.00 0.00 0.00 68 1018.3
20260906213039 64 302 8.0 14.0 0.00 0.00 0.00 69 1018.5
20260906211537 64 296 7.0 13.0 0.00 0.00 0.00 69 1018.5
20260906210039 64 299 5.0 11.0 0.00 0.00 0.00 69 1018.5
20260906204538 64 268 3.0 9.0 0.00 0.00 0.00 68 1018.6
20260906203040 63 295 5.0 9.0 0.00 0.00 0.00 69 1018.6
20260906201538 63 273 3.0 9.0 0.00 0.00 0.00 70 1018.7
20260906200037 63 275 2.0 9.0 0.00 0.00 0.00 70 1018.9
20260906194534 63 307 2.0 10.0 0.00 0.00 0.00 71 1018.8
20260906193036 63 294 3.0 8.0 0.00 0.00 0.00 69 1018.9
20260906191539 62 323 2.0 5.0 0.00 0.00 0.00 70 1019.1
20260906190039 62 324 3.0 6.0 0.00 0.00 0.00 70 1019.3
20260906184540 62 0 1.0 6.0 0.00 0.00 0.00 71 1019.5
20260906183034 62 5 2.0 7.0 0.00 0.00 0.00 71 1019.8
20260906181538 61 0 0.0 8.0 0.00 0.00 0.00 72 1019.9
20260906180041 61 331 3.0 7.0 0.00 0.00 0.00 72 1020.2
20260906174538 60 347 2.0 10.0 0.00 0.00 0.00 73 1020.4
20260906173038 60 24 6.0 12.0 0.00 0.00 0.00 74 1020.5
20260906171539 60 42 6.0 11.0 0.00 0.00 0.00 75 1020.5
20260906170106 59 27 4.0 8.0 0.00 0.00 0.00 78 1020.7
20260906164537 58 19 3.0 8.0 0.00 0.00 0.00 79 1020.9
20260906163035 56 21 8.0 11.0 0.00 0.00 0.00 83 1021.0
20260906161537 56 9 3.0 9.0 0.00 0.00 0.00 86 1021.7
20260906160038 55 16 3.0 8.0 0.00 0.00 0.00 87 1021.6
20260906154537 54 347 5.0 8.0 0.00 0.00 0.00 89 1021.8
20260906153040 54 344 3.0 10.0 0.00 0.00 0.00 90 1021.9
20260906151540 53 335 5.0 12.0 0.00 0.00 0.00 91 1022.1
20260906150039 54 329 11.0 15.0 0.00 0.00 0.00 91 1022.2
20260906144537 55 303 8.0 14.0 0.00 0.00 0.00 90 1022.4
20260906143036 55 298 8.0 12.0 0.00 0.00 0.00 88 1022.5
20260906141538 55 322 7.0 11.0 0.00 0.00 0.00 88 1022.2
20260906140044 56 304 9.0 13.0 0.00 0.00 0.00 88 1022.5
20260906134540 56 301 6.0 11.0 0.00 0.00 0.00 88 1022.3
20260906133034 56 309 6.0 9.0 0.00 0.00 0.00 88 1022.1
20260906131538 56 326 5.0 9.0 0.00 0.00 0.00 89 1021.9
20260906130036 56 309 4.0 8.0 0.00 0.00 0.00 89 1022.0
20260906124542 56 268 4.0 10.0 0.00 0.03 0.00 89 1022.4
20260906123106 56 279 4.0 9.0 0.00 0.03 0.00 88 1022.5
20260906121541 56 282 5.0 9.0 0.00 0.03 0.00 88 1022.4
20260906120035 56 266 3.0 9.0 0.00 0.03 0.00 88 1022.3
20260906114536 56 261 2.0 6.0 0.00 0.03 0.00 88 1022.2
20260906113038 56 270 2.0 6.0 0.00 0.03 0.00 88 1022.3
20260906111538 56 0 2.0 6.0 0.00 0.03 0.00 88 1022.0
20260906110036 56 335 3.0 5.0 0.00 0.03 0.00 87 1021.8
20260906104534 56 335 3.0 6.0 0.00 0.03 0.00 86 1021.8
20260906103036 56 335 3.0 8.0 0.00 0.03 0.00 86 1021.8
20260906101537 56 335 3.0 6.0 0.00 0.03 0.00 86 1021.8
20260906100035 56 0 0.0 9.0 0.00 0.03 0.00 85 1021.8
20260906094535 56 352 2.0 8.0 0.00 0.03 0.00 85 1021.7
20260906093040 56 346 2.0 5.0 0.00 0.03 0.00 85 1021.7
20260906091554 56 355 3.0 6.0 0.00 0.03 0.00 86 1021.9
20260906090035 56 9 3.0 7.0 0.00 0.03 0.00 87 1021.9
20260906084536 56 0 1.0 3.0 0.00 0.03 0.00 87 1021.7
20260906083036 56 9 1.0 5.0 0.00 0.03 0.00 88 1021.8
20260906081536 56 346 4.0 8.0 0.00 0.03 0.00 88 1021.9
20260906080038 56 23 3.0 9.0 0.00 0.03 0.00 88 1022.1
20260906074545 56 352 4.0 9.0 0.00 0.03 0.00 88 1022.3
20260906073039 56 13 3.0 10.0 0.00 0.03 0.00 88 1022.5
20260906071534 56 329 5.0 9.0 0.00 0.03 0.00 87 1022.7
20260906070035 56 346 3.0 9.0 0.00 0.03 0.00 87 1023.1
20260906064537 56 341 4.0 10.0 0.00 0.03 0.00 87 1023.3
20260906063036 56 328 7.0 10.0 0.00 0.03 0.00 86 1023.1
20260906061534 56 325 6.0 10.0 0.00 0.03 0.00 86 1023.1
20260906060036 57 320 9.0 17.0 0.00 0.03 0.00 84 1023.1
20260906054541 57 331 12.0 18.0 0.00 0.03 0.03 84 1023.3
20260906053036 58 329 9.0 16.0 0.00 0.03 0.03 82 1023.5
20260906051533 58 288 6.0 12.0 0.00 0.03 0.03 82 1023.9
20260906050049 58 295 6.0 11.0 0.00 0.03 0.03 83 1023.5
20260906044533 57 304 6.0 10.0 0.00 0.03 0.03 84 1023.1
20260906043033 58 328 5.0 10.0 0.00 0.03 0.03 82 1022.8
20260906041537 58 337 8.0 16.0 0.00 0.03 0.03 80 1022.8
20260906040039 59 317 7.0 14.0 0.00 0.03 0.03 78 1022.9
20260906034536 60 342 9.0 17.0 0.00 0.03 0.03 76 1021.9
20260906033046 61 334 10.0 19.0 0.00 0.03 0.03 73 1022.0
20260906031537 62 348 17.0 26.0 0.00 0.03 0.03 66 1021.6
20260906030044 63 289 10.0 28.0 0.00 0.03 0.03 64 1021.6
20260906024545 63 355 13.0 23.0 0.00 0.04 0.03 63 1019.6
20260906023048 64 360 13.0 21.0 0.00 0.04 0.03 60 1019.9
20260906021536 66 355 12.0 20.0 0.00 0.04 0.03 57 1019.6
20260906020051 67 346 13.0 19.0 0.00 0.04 0.03 52 1019.8
20260906014535 67 319 14.0 21.0 0.00 0.04 0.03 52 1020.0
20260906013049 69 297 3.0 10.0 0.00 0.04 0.03 45 1020.1
20260906011556 70 32 9.0 16.0 0.00 0.04 0.03 44 1018.9
20260906010042 70 22 10.0 14.0 0.00 0.04 0.03 43 1018.5
20260906004539 71 41 12.0 19.0 0.00 0.04 0.03 41 1018.9
20260906003038 72 37 12.0 19.0 0.00 0.04 0.03 41 1018.9
20260906001537 74 23 11.0 20.0 0.00 0.04 0.03 39 1019.2
20260906000050 74 44 13.0 22.0 0.00 0.04 0.03 40 1019.4
20260905234538 75 45 12.0 19.0 0.00 0.04 0.03 39 1019.4
20260905233042 75 47 13.0 17.0 0.00 0.04 0.03 39 1019.5